星链-4028 (STARLINK-4028 )

导读

STARLINK-4028是美国SpaceX星链卫星互联网项目的卫星,于2022年5月18日发射升空,为星链星座的组网卫星之一。它属于星链Gen 1批次,运行在近地轨道,旨在为全球提供高速低延迟的卫星互联网服务,是星链大规模组网进程中发射的卫星之一。

基本信息
目录编号:
52677
目录名称:
STARLINK-4028
国际标识:
2022-053X
轨道中心:
EARTH
卫星名称:
星链-4028
卫星全名:
星链-4028 (STARLINK-4028 )
卫星状态:
已陨落 最后检测时间 2025-08-11
发射日期:
2022-05-18 UTC
国别 :
美国 (US)
星等 :
--
轨道信息
数据来源 国际轨道数据
星历时间: 2025-08-11T11:49:37+0800
轨道信息已过期310天
半长轴: 6529.313km
偏心率: 0.0006665
轨道倾角: 53.205°
近地点辐角 307.408°
升交点赤经 328.867°
平近点角 120.122°
近地点: 146.826km
远地点: 155.53km
周期: 87.511分钟
每日圈数: 16.455139
详细信息
固有亮度:
5
最大亮度:
2.5
卫星平台:
Starlink v1.5
覆盖范围:
全球
运营商:
太空探索技术公司
运营商所在国:
美国
制造商(研发单位):
太空探索技术公司
制造商所在国:
美国
使用方式:
暂无
卫星简介
星链(Starlink)计划是由太空探索技术公司(SpaceX)提出的一个巨型低轨卫星互联网星座项目,计划在2019年至2024年间在太空搭建由约1.2万颗卫星组成的“星链”网络,其中1584颗将部署在地球上空550千米处的近地轨道,并从2020年开始工作。该卫星仍在工作。